When you browse on this site, cookies collect data to enhance your experience and personalize the content and advertising you see.
Visit our Privacy Policy to learn more. By continuing to use the site, you agree to this use of cookies and data.
  • In Switzerland
  • List of Countries
  • For 7 days
  • Water Temperature
  • Satellite Maps
  • Weather Map
  • Weather Widgets
  • user-avatar
    Login

    Hourly Weather Wadzhir

    Today, 26 June, Wednesday

    Time Temperature Precipitation Wind Pressure Humidity
    00:00 +29°C° 0.2 mm 9 mps 738 mmHg 61%
    01:00 +28°C° 0.1 mm 8 mps 738 mmHg 64%
    02:00 +27°C° 0.1 mm 7 mps 737 mmHg 66%
    03:00 +27°C° 0 mm 6 mps 737 mmHg 67%
    04:00 +26°C° 0 mm 6 mps 737 mmHg 70%
    05:00 +26°C° 0 mm 5 mps 738 mmHg 73%
    06:00 +25°C° 0 mm 4 mps 738 mmHg 76%
    07:00 +26°C° 0 mm 5 mps 739 mmHg 70%
    08:00 +28°C° 0 mm 6 mps 739 mmHg 64%
    09:00 +29°C° 0 mm 6 mps 740 mmHg 57%
    10:00 +30°C° 0 mm 7 mps 739 mmHg 51%
    11:00 +33°C° 0 mm 7 mps 739 mmHg 44%
    12:00 +34°C° 0 mm 8 mps 738 mmHg 38%
    13:00 +35°C° 0 mm 7 mps 738 mmHg 37%
    14:00 +35°C° 0 mm 7 mps 737 mmHg 37%
    15:00 +35°C° 0 mm 7 mps 736 mmHg 37%
    16:00 +35°C° 0 mm 7 mps 736 mmHg 38%
    17:00 +34°C° 0 mm 7 mps 736 mmHg 38%
    18:00 +34°C° 0 mm 7 mps 736 mmHg 39%
    19:00 +34°C° 0 mm 7 mps 736 mmHg 41%
    20:00 +33°C° 0 mm 7 mps 737 mmHg 42%
    21:00 +33°C° 0 mm 6 mps 737 mmHg 43%
    22:00 +32°C° 0 mm 7 mps 737 mmHg 46%
    23:00 +30°C° 0 mm 7 mps 738 mmHg 48%

    Tomorrow, 27 June, Thursday

    Time Temperature Precipitation Wind Pressure Humidity
    00:00 +29°C° 0 mm 8 mps 738 mmHg 51%
    01:00 +28°C° 0 mm 7 mps 738 mmHg 55%
    02:00 +27°C° 0 mm 6 mps 737 mmHg 60%
    03:00 +26°C° 0 mm 6 mps 737 mmHg 64%
    04:00 +26°C° 0 mm 5 mps 738 mmHg 68%
    05:00 +25°C° 0 mm 5 mps 738 mmHg 72%
    06:00 +25°C° 0 mm 5 mps 738 mmHg 76%
    07:00 +26°C° 0 mm 6 mps 739 mmHg 73%
    08:00 +26°C° 0 mm 6 mps 739 mmHg 69%
    09:00 +27°C° 0 mm 7 mps 739 mmHg 66%
    10:00 +29°C° 0 mm 8 mps 739 mmHg 58%
    11:00 +32°C° 0 mm 8 mps 739 mmHg 50%
    12:00 +34°C° 0 mm 9 mps 738 mmHg 43%
    13:00 +35°C° 0 mm 9 mps 737 mmHg 40%
    14:00 +37°C° 0 mm 8 mps 736 mmHg 37%
    15:00 +38°C° 0 mm 8 mps 735 mmHg 34%
    16:00 +37°C° 0 mm 8 mps 735 mmHg 35%
    17:00 +35°C° 0 mm 9 mps 735 mmHg 37%
    18:00 +35°C° 0 mm 9 mps 735 mmHg 39%
    19:00 +34°C° 0 mm 9 mps 735 mmHg 42%
    20:00 +33°C° 0 mm 10 mps 736 mmHg 46%
    21:00 +31°C° 0 mm 10 mps 737 mmHg 49%
    22:00 +31°C° 0 mm 10 mps 737 mmHg 51%
    23:00 +29°C° 0 mm 10 mps 737 mmHg 53%

    Day after tomorrow, 28 June, Friday

    Time Temperature Precipitation Wind Pressure Humidity
    00:00 +28°C° 0 mm 10 mps 738 mmHg 55%
    01:00 +27°C° 0 mm 9 mps 738 mmHg 60%
    02:00 +26°C° 0 mm 8 mps 737 mmHg 64%
    03:00 +26°C° 0 mm 7 mps 737 mmHg 69%
    04:00 +24°C° 0 mm 6 mps 737 mmHg 71%
    05:00 +24°C° 0 mm 6 mps 738 mmHg 72%
    06:00 +24°C° 0 mm 6 mps 738 mmHg 73%
    07:00 +26°C° 0 mm 6 mps 738 mmHg 66%
    08:00 +27°C° 0 mm 7 mps 738 mmHg 59%
    09:00 +28°C° 0 mm 8 mps 739 mmHg 53%
    10:00 +31°C° 0 mm 8 mps 739 mmHg 47%
    11:00 +32°C° 0 mm 8 mps 738 mmHg 41%
    12:00 +34°C° 0 mm 9 mps 738 mmHg 35%
    13:00 +35°C° 0 mm 9 mps 737 mmHg 33%
    14:00 +37°C° 0 mm 9 mps 736 mmHg 32%
    15:00 +37°C° 0 mm 8 mps 735 mmHg 31%
    16:00 +37°C° 0 mm 8 mps 735 mmHg 32%
    17:00 +35°C° 0 mm 8 mps 735 mmHg 32%
    18:00 +35°C° 0 mm 8 mps 735 mmHg 33%
    19:00 +34°C° 0 mm 9 mps 736 mmHg 36%
    20:00 +33°C° 0 mm 9 mps 736 mmHg 38%
    21:00 +32°C° 0 mm 9 mps 737 mmHg 41%
    22:00 +31°C° 0 mm 9 mps 737 mmHg 44%
    23:00 +29°C° 0 mm 8 mps 737 mmHg 47%

    29 June, Saturday

    Time Temperature Precipitation Wind Pressure Humidity
    00:00 +28°C° 0 mm 8 mps 738 mmHg 50%
    01:00 +27°C° 0 mm 7 mps 738 mmHg 55%
    02:00 +26°C° 0 mm 7 mps 738 mmHg 61%
    03:00 +24°C° 0 mm 6 mps 737 mmHg 66%
    04:00 +25°C° 0 mm 5 mps 738 mmHg 69%
    05:00 +25°C° 0 mm 5 mps 738 mmHg 72%
    06:00 +23°C° 0 mm 4 mps 738 mmHg 74%
    07:00 +26°C° 0 mm 5 mps 739 mmHg 67%
    08:00 +27°C° 0 mm 7 mps 739 mmHg 60%
    09:00 +28°C° 0 mm 8 mps 740 mmHg 53%
    10:00 +31°C° 0 mm 8 mps 739 mmHg 46%
    11:00 +33°C° 0 mm 9 mps 739 mmHg 39%
    12:00 +34°C° 0 mm 9 mps 738 mmHg 32%
    13:00 +35°C° 0 mm 9 mps 737 mmHg 31%
    14:00 +37°C° 0 mm 9 mps 737 mmHg 29%
    15:00 +37°C° 0 mm 9 mps 736 mmHg 27%
    16:00 +37°C° 0 mm 9 mps 736 mmHg 28%
    17:00 +35°C° 0 mm 8 mps 735 mmHg 30%
    18:00 +35°C° 0 mm 8 mps 735 mmHg 32%
    19:00 +34°C° 0 mm 8 mps 736 mmHg 36%
    20:00 +33°C° 0 mm 8 mps 736 mmHg 41%
    21:00 +32°C° 0 mm 8 mps 737 mmHg 45%
    22:00 +31°C° 0 mm 8 mps 737 mmHg 49%
    23:00 +31°C° 0 mm 8 mps 737 mmHg 53%

    30 June, Sunday

    Time Temperature Precipitation Wind Pressure Humidity
    00:00 +29°C° 0 mm 9 mps 737 mmHg 57%
    01:00 +28°C° 0 mm 8 mps 737 mmHg 62%
    02:00 +27°C° 0 mm 8 mps 737 mmHg 66%
    03:00 +26°C° 0 mm 7 mps 737 mmHg 71%
    04:00 +26°C° 0 mm 7 mps 737 mmHg 72%
    05:00 +26°C° 0 mm 7 mps 738 mmHg 74%
    06:00 +26°C° 0 mm 6 mps 738 mmHg 75%
    07:00 +26°C° 0 mm 7 mps 739 mmHg 72%
    08:00 +27°C° 0 mm 7 mps 739 mmHg 69%
    09:00 +28°C° 0 mm 8 mps 740 mmHg 67%
    10:00 +29°C° 0 mm 8 mps 739 mmHg 63%
    11:00 +29°C° 0 mm 8 mps 739 mmHg 58%
    12:00 +31°C° 0 mm 8 mps 739 mmHg 54%
    13:00 +32°C° 0 mm 8 mps 738 mmHg 50%
    14:00 +34°C° 0 mm 8 mps 737 mmHg 46%
    15:00 +35°C° 0 mm 8 mps 736 mmHg 41%
    16:00 +35°C° 0 mm 8 mps 736 mmHg 42%
    17:00 +34°C° 0 mm 8 mps 736 mmHg 42%
    18:00 +34°C° 0 mm 8 mps 736 mmHg 42%
    19:00 +34°C° 0 mm 7 mps 736 mmHg 44%
    20:00 +33°C° 0 mm 7 mps 737 mmHg 45%
    21:00 +32°C° 0 mm 6 mps 738 mmHg 47%
    22:00 +30°C° 0 mm 7 mps 738 mmHg 52%
    23:00 +29°C° 0 mm 8 mps 738 mmHg 57%

    1 July, Monday

    Time Temperature Precipitation Wind Pressure Humidity
    00:00 +28°C° 0 mm 9 mps 738 mmHg 62%
    01:00 +27°C° 0 mm 8 mps 738 mmHg 63%
    02:00 +27°C° 0 mm 7 mps 738 mmHg 65%
    03:00 +26°C° 0 mm 6 mps 737 mmHg 66%
    04:00 +26°C° 0 mm 5 mps 738 mmHg 70%
    05:00 +25°C° 0 mm 5 mps 738 mmHg 73%
    06:00 +25°C° 0 mm 4 mps 738 mmHg 77%
    07:00 +26°C° 0 mm 5 mps 739 mmHg 71%
    08:00 +27°C° 0 mm 7 mps 739 mmHg 66%
    09:00 +28°C° 0 mm 8 mps 740 mmHg 60%
    10:00 +31°C° 0 mm 8 mps 739 mmHg 55%
    11:00 +32°C° 0 mm 8 mps 739 mmHg 50%
    12:00 +33°C° 0 mm 8 mps 738 mmHg 44%
    13:00 +35°C° 0 mm 8 mps 737 mmHg 40%
    14:00 +37°C° 0 mm 8 mps 736 mmHg 36%
    15:00 +38°C° 0 mm 8 mps 735 mmHg 32%
    16:00 +37°C° 0 mm 8 mps 735 mmHg 34%
    17:00 +35°C° 0 mm 8 mps 735 mmHg 35%
    18:00 +35°C° 0 mm 8 mps 735 mmHg 37%
    19:00 +34°C° 0 mm 8 mps 735 mmHg 40%
    20:00 +33°C° 0 mm 7 mps 736 mmHg 43%
    21:00 +32°C° 0 mm 6 mps 737 mmHg 46%
    22:00 +30°C° 0 mm 7 mps 737 mmHg 49%
    23:00 +29°C° 0 mm 7 mps 737 mmHg 51%
    Show more